STARLINK-1898 (46745 NORAD) Tracking and Keplerian Element Data
This shows tracking and keplerian element data for the satellite.
Feedback or suggestion? Click here.
Element | Value |
Catalog | 46745 |
Name | STARLINK-1898 |
Epoch Orbit | 180 |
Epoch Day | 20.91667824 |
Epoch Year | 2021 |
RAAN | 93.3097 |
Inclination | 53.0506 |
Eccentricity | 0.0001061 |
Argument of Perigee | 67.5421 |
Mean Anonmoly | 207.372 |
Mean Motion | 15.06410523 |
Decay Rate | -0.00023726 |
L1 | 1 46745U 20074G 21020.91667824 -.00023726 00000-0 -15788-2 0 9990 |
L2 | 2 46745 53.0506 93.3097 0001061 67.5421 207.3720 15.06410523 1808 |
Live tracking and technical data element details for STARLINK-1898 (NORAD 46745). STARLINK-1898 can be tracked NOW for your location showing map with azimuth and elevation plus other details from your city location.
Track the satellite on the map from your city or location and see movement details for azimuth, elevation, latitude, longitude, range, height, and movement on the map or in text.
IsCatalogInMostPopularTable: catalog: 46745, numindb: 23
Update: records affected: 1
GetName: 46745 STARLINK-1898
Hit Count: updated at: Fri, 22 Jan 2021 18:52:45 GMT